Weather History for Mackinac Island, MI

Change the Weather History Date:

Sunday, January 26, 2014

  Actual Average Record
Temperature  
Mean Temperature 2 °F -  
Max Temperature 9 °F 23 °F 39 °F (2002)
Min Temperature -6 °F 11 °F -6 °F (2014)
Degree Days  
Heating Degree Days 64    
Moisture  
Dew Point -1 °F    
Average Humidity 84    
Maximum Humidity 89    
Minimum Humidity 78    
Precipitation  
Precipitation 0.00 in - - ()
Sea Level Pressure  
Sea Level Pressure 29.41 in    
Wind  
Wind Speed 10 mph (ESE)    
Max Wind Speed 22 mph    
Max Gust Speed 29 mph    
Visibility 5 miles    
Events Snow    
Averages and records for this station are not official NWS values.
T = Trace of Precipitation, MM = Missing Value Source: NWS Daily Summary

Daily Weather History Graph

Daily Weather History Graph

Search for Another Location

Airport:

Trip Planner

Search our weather history database for the weather conditions in past years. The results will help you decide how hot, cold, wet, or windy it might be!

Date:

Astronomy

Jan. 26, 2014 Rise Set
Actual Time 8:07 AM EST 5:35 PM EST
Civil Twilight 7:34 AM EST 6:08 PM EST
Nautical Twilight 6:58 AM EST 6:44 PM EST
Astronomical Twilight 6:23 AM EST 7:19 PM EST
Moon 3:44 AM EST 1:22 PM EST
Length of Visible Light 10h 33m
Length of Day
9h 28m
Waning Crescent, 24% of the Moon is Illuminated
Jan 26
Waning Crescent
Jan 30
New
Feb 6
First Quarter
Feb 14
Full
Feb 22
Last Quarter

Hourly Weather History & Observations

Time (EST) Temp. Windchill Dew Point Humidity Pressure Visibility Wind Dir Wind Speed Gust Speed Precip Events Conditions
12:15 AM -0.9 °F -23.0 °F -6.3 °F 78% 29.57 in 10.0 mi West 19.6 mph 28.8 mph N/A   Clear
12:35 AM -0.8 °F -23.3 °F -6.0 °F 79% 29.57 in 10.0 mi West 20.7 mph 28.8 mph N/A   Clear
12:54 AM -0.9 °F -23.5 °F -6.2 °F 79% 29.57 in 10.0 mi West 20.7 mph 27.6 mph N/A   Clear
1:15 AM -1.3 °F -24.0 °F -6.3 °F 79% 29.57 in 10.0 mi West 20.7 mph 28.8 mph N/A   Clear
1:34 AM -1.7 °F -25.0 °F -6.7 °F 79% 29.57 in 10.0 mi West 21.9 mph 27.6 mph N/A   Clear
1:55 AM -1.8 °F -23.0 °F -6.7 °F 80% 29.56 in 10.0 mi West 17.3 mph 24.2 mph N/A   Clear
2:15 AM -2.2 °F -20.7 °F -7.1 °F 80% 29.56 in 10.0 mi West 12.7 mph 20.7 mph N/A   Clear
2:34 AM -3.1 °F -17.9 °F -7.6 °F 81% 29.56 in 10.0 mi WNW 8.1 mph 17.3 mph N/A   Clear
2:55 AM -3.6 °F -14.1 °F -8.1 °F 81% 29.56 in 10.0 mi NW 4.6 mph - N/A   Clear
3:15 AM -4.9 °F -17.4 °F -8.9 °F 83% 29.55 in 10.0 mi NNW 5.8 mph - N/A   Clear
3:34 AM -4.2 °F -14.8 °F -8.5 °F 82% 29.56 in 10.0 mi NW 4.6 mph - N/A   Clear
3:55 AM -4.0 °F -16.3 °F -8.5 °F 81% 29.55 in 10.0 mi NW 5.8 mph - N/A   Clear
4:15 AM -4.4 °F -15.0 °F -8.5 °F 82% 29.55 in 10.0 mi WNW 4.6 mph - N/A   Clear
4:34 AM -6.0 °F -14.7 °F -10.1 °F 82% 29.55 in 10.0 mi North 3.5 mph - N/A   Clear
4:55 AM -5.4 °F - -9.4 °F 83% 29.55 in 10.0 mi Calm Calm - N/A   Scattered Clouds
5:15 AM -5.4 °F - -9.4 °F 83% 29.55 in 10.0 mi Calm Calm - N/A   Clear
5:34 AM -5.1 °F - -9.0 °F 83% 29.56 in 10.0 mi Calm Calm - N/A   Scattered Clouds
5:55 AM -4.5 °F - -8.5 °F 83% 29.55 in 10.0 mi Calm Calm - N/A   Scattered Clouds
6:14 AM -4.5 °F - -8.5 °F 83% 29.54 in 10.0 mi Calm Calm - N/A   Scattered Clouds
6:35 AM -3.6 °F -15.9 °F -7.6 °F 83% 29.54 in 10.0 mi SSE 5.8 mph - N/A   Mostly Cloudy
6:55 AM -2.4 °F -15.8 °F -6.7 °F 82% 29.54 in 10.0 mi SSE 6.9 mph - N/A   Overcast
7:14 AM -2.4 °F -15.8 °F -6.7 °F 82% 29.53 in 10.0 mi SSE 6.9 mph - N/A   Overcast
7:35 AM -1.7 °F -14.9 °F -6.0 °F 82% 29.52 in 10.0 mi SSE 6.9 mph - N/A   Overcast
7:55 AM -0.6 °F -10.6 °F -5.1 °F 81% 29.52 in 10.0 mi SSE 4.6 mph - N/A   Overcast
8:14 AM 0.1 °F -9.7 °F -4.9 °F 79% 29.51 in 10.0 mi SSE 4.6 mph - N/A   Overcast
8:35 AM 0.5 °F -11.0 °F -4.0 °F 81% 29.50 in 2.0 mi SE 5.8 mph - N/A Snow Light Snow
8:55 AM 1.9 °F -9.2 °F -2.2 °F 83% 29.50 in 2.5 mi SE 5.8 mph - N/A Snow Light Snow
9:14 AM 2.7 °F -4.8 °F -1.3 °F 84% 29.49 in 3.0 mi SE 3.5 mph - N/A Snow Light Snow
9:35 AM 3.2 °F -7.8 °F -0.6 °F 84% 29.47 in 2.0 mi SE 5.8 mph - N/A Snow Light Snow
9:55 AM 3.7 °F -7.1 °F 0.1 °F 85% 29.46 in 2.5 mi SE 5.8 mph - N/A Snow Light Snow
10:14 AM 4.6 °F -7.4 °F 0.9 °F 84% 29.44 in 2.5 mi SSE 6.9 mph - N/A Snow Light Snow
10:35 AM 5.2 °F -3.8 °F 1.4 °F 84% 29.43 in 2.0 mi SSE 4.6 mph - N/A Snow Light Snow
10:55 AM 5.9 °F -4.5 °F 1.6 °F 82% 29.42 in 2.5 mi SSE 5.8 mph - N/A Snow Light Snow
11:15 AM 5.4 °F -6.5 °F 0.9 °F 82% 29.42 in 3.0 mi SSE 6.9 mph - N/A   Overcast
11:35 AM 5.7 °F -3.2 °F 1.4 °F 82% 29.43 in 1.8 mi SSE 4.6 mph - N/A Snow Light Snow
11:54 AM 5.9 °F -4.5 °F 2.1 °F 84% 29.40 in 1.5 mi SSE 5.8 mph - N/A Snow Light Snow
12:15 PM 6.8 °F -2.0 °F 3.2 °F 85% 29.40 in 1.8 mi South 4.6 mph - N/A Snow Light Snow
12:35 PM 7.3 °F -1.3 °F 3.7 °F 85% 29.39 in 1.0 mi SSE 4.6 mph - N/A Snow Light Snow
12:54 PM 7.7 °F -3.7 °F 4.1 °F 85% 29.37 in 1.2 mi SSE 6.9 mph - N/A Snow Light Snow
1:15 PM 8.2 °F -5.1 °F 4.6 °F 85% 29.36 in 1.8 mi SSE 9.2 mph - N/A Snow Light Snow
1:35 PM 8.4 °F -2.8 °F 3.9 °F 82% 29.34 in 3.0 mi SE 6.9 mph 17.3 mph N/A Snow Light Snow
1:54 PM 8.4 °F -3.9 °F 4.1 °F 83% 29.31 in 4.0 mi SSE 8.1 mph - N/A Snow Light Snow
2:15 PM 8.6 °F -1.3 °F 4.5 °F 83% 29.30 in 1.8 mi SE 5.8 mph - N/A Snow Light Snow
2:35 PM 8.6 °F -3.7 °F 4.5 °F 83% 29.29 in 1.5 mi SSE 8.1 mph - N/A Snow Light Snow
2:54 PM 9.0 °F 0.6 °F 4.5 °F 82% 29.28 in 2.5 mi SSE 4.6 mph - N/A Snow Light Snow
3:15 PM 9.3 °F -1.7 °F 4.6 °F 81% 29.28 in 7.0 mi SE 6.9 mph - N/A   Overcast
3:34 PM 9.5 °F -1.5 °F 4.8 °F 81% 29.27 in 7.0 mi SE 6.9 mph - N/A   Overcast
3:55 PM 9.5 °F -1.5 °F 5.2 °F 83% 29.27 in 5.0 mi ESE 6.9 mph - N/A Snow Light Snow
4:15 PM 9.5 °F -2.6 °F 5.0 °F 82% 29.27 in 4.0 mi ESE 8.1 mph - N/A Snow Light Snow
4:34 PM 9.5 °F 3.0 °F 5.0 °F 82% 29.27 in 3.0 mi ESE 3.5 mph - N/A Snow Light Snow
4:55 PM 9.5 °F -0.3 °F 5.2 °F 83% 29.28 in 4.0 mi ESE 5.8 mph - N/A Snow Light Snow
5:15 PM 9.3 °F -0.5 °F 5.5 °F 85% 29.27 in 1.2 mi ESE 5.8 mph - N/A Snow Light Snow
5:34 PM 9.3 °F -0.5 °F 5.9 °F 86% 29.27 in 1.2 mi East 5.8 mph - N/A Snow Light Snow
5:55 PM 7.7 °F -4.8 °F 5.0 °F 89% 29.27 in 1.5 mi East 8.1 mph - N/A Snow Light Snow
6:15 PM 6.4 °F -6.3 °F 3.7 °F 89% 29.27 in 1.5 mi East 8.1 mph - N/A Snow Light Snow
6:34 PM 6.6 °F -3.7 °F 3.9 °F 89% 29.26 in 1.5 mi East 5.8 mph - N/A Snow Light Snow
6:55 PM 9.0 °F -2.2 °F 6.3 °F 89% 29.26 in 2.0 mi East 6.9 mph - N/A Snow Light Snow
7:15 PM 5.9 °F -10.5 °F 3.0 °F 88% 29.25 in 1.5 mi ENE 12.7 mph 18.4 mph N/A Snow Light Snow
7:34 PM 5.0 °F -12.3 °F 2.1 °F 88% 29.25 in 1.5 mi ENE 13.8 mph 17.3 mph N/A Snow Light Snow
7:55 PM 5.0 °F -12.3 °F 2.3 °F 89% 29.25 in 1.2 mi ENE 13.8 mph - N/A Snow Light Snow
8:14 PM 5.0 °F -12.3 °F 2.3 °F 89% 29.25 in 1.2 mi NE 13.8 mph - N/A Snow Light Snow
8:35 PM 5.0 °F -11.6 °F 2.5 °F 89% 29.26 in 1.8 mi NE 12.7 mph - N/A Snow Light Snow
8:55 PM 5.4 °F -11.8 °F 2.7 °F 89% 29.27 in 1.8 mi NNE 13.8 mph - N/A Snow Light Snow
9:14 PM 5.0 °F -10.8 °F 2.3 °F 89% 29.27 in 1.8 mi NE 11.5 mph - N/A Snow Light Snow
9:35 PM 4.6 °F -11.3 °F 1.8 °F 88% 29.28 in 2.5 mi NNE 11.5 mph - N/A Snow Light Snow
9:55 PM 4.1 °F -8.0 °F 1.4 °F 89% 29.30 in 1.8 mi North 6.9 mph - N/A Snow Light Snow
10:14 PM 4.1 °F -9.2 °F 1.4 °F 89% 29.30 in 2.0 mi North 8.1 mph - N/A Snow Light Snow
10:35 PM 4.1 °F -9.2 °F 1.2 °F 88% 29.32 in 1.2 mi NNW 8.1 mph - N/A Snow Light Snow
10:55 PM 3.9 °F -9.4 °F 1.0 °F 88% 29.33 in 1.5 mi NNW 8.1 mph - N/A Snow Light Snow
11:14 PM 3.7 °F -7.1 °F 0.7 °F 87% 29.34 in 2.0 mi NW 5.8 mph - N/A Snow Light Snow
11:35 PM 3.4 °F -8.9 °F 0.5 °F 88% 29.35 in 2.0 mi NW 6.9 mph - N/A Snow Light Snow
11:55 PM 3.0 °F -10.5 °F -0.0 °F 87% 29.36 in 5.0 mi NW 8.1 mph - N/A Snow Light Snow